Location: Gleizolles
(44.4833°N, 6.7667°E)
Time: 05:59:58
(UTC+00:00)

BlueWalker 3 - Pass Details

Date: 30 May 2024
Orbit: 480 x 493 km, 53.2° (Epoch: 23 June)

Event Time Altitude Azimuth Distance (km) Brightness Sun altitude
Exits shadow 03:04:16 - 188° (S) 2,179 4.7 -7.7°
Reaches altitude 10° 03:05:58 10° 173° (S) 1,647 4.2 -7.5°
Maximum altitude 03:08:30 18° 130° (SE) 1,256 4.1 -7.1°
Drops below altitude 10° 03:11:02 10° 87° (E) 1,656 5.5 -6.8°
Sets 03:13:43 0° 68° (ENE) 2,542 7.3 -6.4°
